Погода в Вязищах

Россия / Смоленская область     55°00′53″N   35°01′21″E
темп.,
°C
ветер,
м/с
пор.,
м/с
влажн.,
%
обл.,
%
осадки,
мм/ч
давл.,
гПа
погр.,
м
24 июня, чт
чт2400:00+20ююв117728 0.0 102111
03:00+19юз00885 0.0 102111
06:00+21юв13855 0.0 102084
09:00+27ююв23590 0.0 1020536
12:00+31ю124021 0.0 10201465
15:00+33ю22335 0.0 10182325
18:00+31ююв34482 0.0 1017369
21:00+24ююв227739 0.0 101737
25 июня, пт
пт2500:00+20в0092100 1.9 101811
03:00+20ююв22955 2.0 101728
06:00+22ююв119497 0.5 101747
09:00+27ю24694 0.5 1016438
12:00+32ю24455 0.0 10151905
15:00+28ююз366099 0.3 1014194
18:00+17в4797100 18.4 1016185
21:00+18ю31194100 20.9 1015257
26 июня, сб
сб2600:00+18с1196100 0.4 101425
03:00+17ююв249814 0.4 101490
06:00+18ю149622 0.6 1014146
09:00+22ююв2284100 1.3 1014235
12:00+28ююз3454100 0.0 1013801
15:00+30юз2349100 0.0 10131531
18:00+29юз126198 0.0 1011635
21:00+22ю119087 1.8 101214
27 июня, вс
вс2700:00+20зсз4997100 5.0 1014238
03:00+19с239799 5.0 101387
06:00+19зсз11977 0.3 101464
09:00+25сз11756 0.3 1013432
12:00+27зюз2260100 0.2 1014939
15:00+25з12765 0.2 101393
18:00+29сз025521 0.0 10111094
21:00+23ссв22845 0.1 101240
28 июня, пн
пн2800:00+20зсз4899100 8.4 1012241
03:00+19всв3699100 15.3 1012211
06:00+20в169836 0.1 1011263
09:00+23вюв238392 0.2 1011732
12:00+24ююз2474100 0.1 1010863
15:00+24зсз1286100 3.7 1010521
18:00+19с5109872 4.3 1010392
21:00+18с4999100 11.6 1009459